Home > Time Zones > World Clock > Weather > U.S.A. > Adak > Past weeks

Flag for U.S.A. Weather past 2 weeks in Adak, Alaska, U.S.A.

Now
54 °F

Partly sunny.


Feels Like: 52 °F
Forecast: 46 / 54 °F
Wind: 6 mph from Southeast

Location: Adak

Current Time: Sep 1, 2014 at 6:26:05 PM

Latest Report: Sep 1, 2014 at 5:56 PM


Visibility: 10 mi

Pressure: 30.28 "Hg

Humidity: 72%

Dew point: 45 °F

Location of AdakLocation

Historic Weather in Adak — Graph

°F

Adak temperature yesterday

Maximum temperature yesterday: 57 °F (at 1:36 PM)
Minimum temperature yesterday: 46 °F (at 11:56 PM)
Average temperature yesterday: 53 °F

Past Weeks' High & Low Weather Summary

 TemperatureHumidityPressure
High57 °F (Aug 24, 4:56 PM)94% (Aug 22, 11:16 PM)30.33 "Hg (Aug 22, 11:16 PM)
Low41 °F (Sep 1, 3:56 AM)63% (Aug 30, 12:36 PM)29.63 "Hg (Aug 22, 4:56 PM)
Average52 °F80%29.94 "Hg
* Reported Aug 17 5:16 PM — Sep 1 5:16 PM, Adak, Weather by CustomWeather, © 2014

Note: Actual official high and low records may vary slightly from our data, if they occured in-between our weather recording intervals... More about our weather records

Advertising

Adak weather history for previous 24 hours

 ConditionsComfort  
Time TempWeatherWind HumidityBarometerVisibility
5:16 PM
Sep 1
55 °FOvercast.7 mph72%30.29 "Hg10 mi
4:56 PM55 °FOvercast.7 mph72%30.29 "Hg10 mi
4:36 PM55 °FOvercast.7 mph72%30.29 "Hg10 mi
4:16 PM55 °FOvercast.6 mph72%30.30 "Hg10 mi
3:56 PM54 °FOvercast.5 mph72%30.30 "Hg10 mi
3:36 PM54 °FOvercast.6 mph77%30.31 "Hg10 mi
3:16 PM55 °FOvercast.6 mph72%30.31 "Hg10 mi
2:56 PM55 °FOvercast.6 mph72%30.31 "Hg10 mi
2:36 PM54 °FOvercast.7 mph77%30.31 "Hg10 mi
2:16 PM54 °FPartly sunny.7 mph77%30.31 "Hg10 mi
1:56 PM54 °FPartly sunny.7 mph77%30.32 "Hg10 mi
1:36 PM54 °FScattered clouds.8 mph77%30.32 "Hg10 mi
1:16 PM54 °FSunny.9 mph77%30.32 "Hg10 mi
12:56 PM54 °FSunny.8 mph77%30.32 "Hg10 mi
12:36 PM54 °FSunny.8 mph77%30.32 "Hg10 mi
12:16 PM52 °FSunny.7 mph77%30.32 "Hg10 mi
11:56 AM52 °FSunny.7 mph77%30.33 "Hg10 mi
11:36 AM52 °FScattered clouds.6 mph82%30.32 "Hg10 mi
11:16 AM52 °FScattered clouds.7 mph82%30.32 "Hg10 mi
10:56 AM54 °FSunny.No wind77%30.32 "Hg10 mi
10:36 AM52 °FSunny.3 mph82%30.32 "Hg10 mi
10:16 AM52 °FSunny.No wind82%30.32 "Hg10 mi
9:56 AM50 °FSunny.5 mph88%30.32 "Hg10 mi
9:36 AM48 °FSunny.6 mph87%30.32 "Hg10 mi
8:56 AM45 °FClear.6 mph87%30.32 "Hg10 mi
8:36 AM43 °FClear.5 mph81%30.32 "Hg10 mi
8:16 AM41 °FClear.No wind87%30.31 "Hg10 mi
7:56 AM43 °FClear.No wind81%30.31 "Hg10 mi
7:36 AM41 °FClear.No wind87%30.30 "Hg10 mi
7:16 AM43 °FClear.5 mph87%30.30 "Hg10 mi
6:56 AM41 °FClear.No wind87%30.31 "Hg10 mi
6:36 AM43 °FClear.No wind87%30.30 "Hg10 mi
6:16 AM41 °FClear.No wind87%30.30 "Hg10 mi
5:56 AM43 °FClear.No wind81%30.30 "Hg10 mi
5:36 AM43 °FClear.3 mph87%30.31 "Hg10 mi
5:16 AM43 °FClear.6 mph81%30.31 "Hg10 mi
4:56 AM41 °FClear.3 mph87%30.31 "Hg10 mi
4:36 AM41 °FClear.5 mph87%30.31 "Hg10 mi
4:16 AM43 °FClear.No wind81%30.31 "Hg10 mi
3:56 AM41 °FClear.No wind87%30.31 "Hg8 mi
3:36 AM43 °FPassing clouds.No wind81%30.31 "Hg4 mi
2:56 AM43 °FLow clouds.No wind81%30.31 "Hg1 mi
2:36 AM43 °FLow clouds.No wind87%30.32 "Hg0 mi
2:16 AM43 °FLow clouds.No wind87%30.32 "Hg1 mi
1:56 AM43 °FLow clouds.No wind81%30.31 "Hg0 mi
1:36 AM45 °FLow clouds.No wind81%30.31 "Hg0 mi
1:16 AM45 °FLow clouds.No wind87%30.32 "Hg0 mi
12:56 AM46 °FLow clouds.No wind87%30.31 "Hg0 mi
12:36 AM46 °FLow clouds.No wind87%30.31 "Hg0 mi
12:16 AM46 °FLow clouds.No wind82%30.31 "Hg6 mi
11:56 PM
Aug 31
46 °FPassing clouds.No wind87%30.31 "Hg10 mi
11:36 PM48 °FClear.No wind87%30.31 "Hg10 mi
11:16 PM50 °FPassing clouds.3 mph82%30.31 "Hg10 mi
10:56 PM52 °FLow clouds.No wind82%30.31 "Hg10 mi
10:36 PM52 °FMostly cloudy.No wind82%30.31 "Hg10 mi
10:16 PM52 °FMostly cloudy.No wind82%30.30 "Hg10 mi
9:56 PM54 °FMostly cloudy.No wind77%30.29 "Hg10 mi
9:36 PM54 °FMore clouds than sun.No wind77%30.28 "Hg10 mi
9:16 PM54 °FMore clouds than sun.No wind77%30.28 "Hg10 mi
8:56 PM54 °FMostly cloudy.No wind82%30.28 "Hg10 mi
8:36 PM54 °FOvercast.No wind82%30.28 "Hg10 mi
8:16 PM54 °FOvercast.3 mph82%30.27 "Hg10 mi
7:56 PM55 °FOvercast.5 mph77%30.27 "Hg9 mi
7:36 PM55 °FOvercast.3 mph77%30.26 "Hg10 mi
7:16 PM55 °FLow clouds.5 mph77%30.27 "Hg10 mi
6:56 PM55 °FMostly cloudy.6 mph77%30.26 "Hg10 mi
6:36 PM55 °FLow clouds.5 mph77%30.26 "Hg10 mi
6:16 PM55 °FMostly cloudy.6 mph77%30.25 "Hg10 mi
Weather by CustomWeather, © 2014

See weather overviewHow to use our weather pages